Regional Weather Roundup
Issued by NWS

Home | Current Version | Previous Version | Graphics & Text | Print | Product List | Glossary On
Versions: 1 2 3 4 5 6 7 8 9 10 11 12 13 14 15 16 17 18 19 20 21 22 23 24 25 26 27 28 29 30 31 32 33 34 35 36 37 38 39 40 41 42 43 44 45 46 47 48 49 50
000
ASUS45 KBOI 180110
RWRID
WEATHER ROUNDUP FOR IDAHO
NATIONAL WEATHER SERVICE BOISE ID
600 PM MST WED DEC 17 2014

NOTE: "FAIR" INDICATES FEW OR NO CLOUDS BELOW 12000 FEET
WITH NO SIGNIFICANT WEATHER AND/OR OBSTRUCTIONS TO VISIBILITY

IDZ012-014-180200-
SOUTHWEST IDAHO


CITY           SKY/WX    TMP DP  RH WIND       PRES   REMARKS
BOISE          CLOUDY    42  34  73 CALM      29.99R
CALDWELL       CLOUDY    39  30  70 CALM      30.01R
MOUNTAIN HOME  CLOUDY    39  34  81 SE7       29.98R WCI  34
$$

IDZ016-017-180200-
SOUTHCENTRAL IDAHO


CITY           SKY/WX    TMP DP  RH WIND       PRES   REMARKS
BURLEY         PTCLDY    34  27  75 E9        29.97R WCI  27
JEROME         CLEAR     34  28  79 E6        29.99R WCI  29
TWIN FALLS     CLEAR     31  26  82 SE6       29.98R WCI  25
$$

IDZ019>023-180200-
SOUTHEAST IDAHO


CITY           SKY/WX    TMP DP  RH WIND       PRES   REMARKS
IDAHO FALLS    PTCLDY    21  19  92 N5        30.00R WCI  15
POCATELLO      CLEAR     32  29  88 N3        29.99R
REXBURG        PTCLDY    28  27  96 CALM      29.99R
$$

IDZ006-010-011-018-031-032-180200-
CENTRAL IDAHO MOUNTAINS


CITY           SKY/WX    TMP DP  RH WIND       PRES   REMARKS
MCCALL         CLOUDY    32  29  88 CALM      29.93R
HAILEY         PTCLDY    28  27  93 CALM      29.99R
STANLEY          N/A     24  18  77 CALM      29.96R
SALMON         PTCLDY    25  18  74 SE6       29.99S WCI  18
CHALLIS        CLOUDY    28  23  81 CALM      29.99R
$$

IDZ002-004-006-007-026-180200-
NORTHERN IDAHO


CITY           SKY/WX    TMP DP  RH WIND       PRES   REMARKS
LEWISTON       CLOUDY    42  35  76 SE3       29.93S
LOWELL           N/A     37  34  89 N3        30.00R
COEUR D`ALENE  CLOUDY    36  30  80 NE7       29.92S WCI  30
MULLAN PASS    CLOUDY    27  25  92 VRB5      29.86S WCI  22
$$


USA.gov is the U.S. government's official web portal to all federal, state and local government web resources and services.